Location: *
(51.4660°N, 0.3360°W)
Time: 23:48:52
(UTC+00:00)

Mayak - Pass Details

Date: 19 September 2019
Orbit: 581 x 602 km, 97.6° (Epoch: 15 October)

Event Time Altitude Azimuth Distance (km) Brightness Sun altitude
Rises 23:28:01 0° 7° (N) 2,818 3.1 -36.9°
Reaches altitude 10° 23:30:17 10° 0° (N) 1,913 2.1 -37.0°
Enters shadow 23:30:51 13° 357° (N) 1,698 1.8 -37.0°
